Glenwood Springs, CO

10:13 PM MST on December 10, 2016 (GMT -0700)
Sunlight Mountain

Weather History for K5SM - September, 2013

Change the Weather History Date:

Sunday, September 15, 2013

  Actual Average (KRIL) Record (KRIL)
Temperature  
Mean Temperature 48 °F -  
Max Temperature 55 °F 78 °F 98 °F (1990)
Min Temperature 42 °F 41 °F 31 °F (1970)
Degree Days  
Heating Degree Days 16    
Moisture  
Dew Point 44 °F    
Average Humidity 91    
Maximum Humidity 100    
Minimum Humidity 72    
Precipitation  
Precipitation 0.00 in - - ()
Sea Level Pressure  
Sea Level Pressure 30.44 in    
Wind  
Wind Speed 0 mph (ESE)    
Max Wind Speed 5 mph    
Max Gust Speed -    
Visibility 9 miles    
Events Rain , Thunderstorm    
Averages and records for this station are not official NWS values.
T = Trace of Precipitation, MM = Missing Value Source: NWS Daily Summary

Daily Weather History Graph

Daily Weather History Graph

Search for Another Location

Airport or City:

Trip Planner

Search our weather history database for the weather conditions in past years. The results will help you decide how hot, cold, wet, or windy it might be!

Date:

Astronomy

Sep. 15, 2013 Rise Set
Actual Time 6:51 AM MDT 7:17 PM MDT
Civil Twilight 6:24 AM MDT 7:44 PM MDT
Nautical Twilight 5:52 AM MDT 8:16 PM MDT
Astronomical Twilight 5:19 AM MDT 8:48 PM MDT
Moon 4:46 PM MDT (9/15) 2:33 AM MDT (9/15)
Length of Visible Light 13h 20m
Length of Day
12h 26m
Waxing Gibbous, 82% of the Moon is Illuminated
Sep 15
Waxing Gibbous
Sep 19
Full
Sep 26
Last Quarter
Oct 4
New
Oct 11
First Quarter

Hourly Weather History & Observations

Time (MDT) Temp. Windchill Dew Point Humidity Pressure Visibility Wind Dir Wind Speed Gust Speed Precip Events Conditions
12:18 AM 42.8 °F - 42.8 °F 100% 30.38 in 10.0 mi Calm Calm - N/A   Scattered Clouds
12:38 AM 44.6 °F - 42.8 °F 93% 30.38 in 10.0 mi Calm Calm - N/A   Mostly Cloudy
12:58 AM 44.6 °F - 41.0 °F 87% 30.38 in 10.0 mi Calm Calm - N/A   Scattered Clouds
1:18 AM 44.6 °F - 41.0 °F 87% 30.37 in 10.0 mi Calm Calm - N/A   Overcast
1:38 AM 44.6 °F - 42.8 °F 93% 30.37 in 10.0 mi Calm Calm - N/A   Overcast
1:57 AM 44.6 °F - 42.8 °F 93% 30.38 in 10.0 mi Calm Calm - N/A   Overcast
2:17 AM 44.6 °F - 42.8 °F 93% 30.37 in 10.0 mi Calm Calm - N/A   Light Drizzle
2:38 AM 44.6 °F - 42.8 °F 93% 30.37 in 10.0 mi Calm Calm - N/A Rain Light Rain
2:58 AM 44.6 °F - 42.8 °F 93% 30.37 in 10.0 mi Calm Calm - N/A   Overcast
3:18 AM 44.6 °F - 42.8 °F 93% 30.37 in 10.0 mi Calm Calm - N/A   Mostly Cloudy
3:38 AM 44.6 °F - 42.8 °F 93% 30.37 in 10.0 mi Calm Calm - N/A   Mostly Cloudy
3:58 AM 44.6 °F - 42.8 °F 93% 30.37 in 10.0 mi Calm Calm - N/A   Overcast
4:18 AM 44.6 °F - 44.6 °F 100% 30.38 in 10.0 mi Calm Calm - N/A   Overcast
4:38 AM 44.6 °F 43.1 °F 42.8 °F 93% 30.38 in 10.0 mi SE 3.5 mph - N/A   Overcast
4:58 AM 44.6 °F 43.1 °F 42.8 °F 93% 30.39 in 10.0 mi SE 3.5 mph - N/A   Overcast
5:18 AM 44.6 °F - 42.8 °F 93% 30.39 in 10.0 mi Calm Calm - N/A   Overcast
5:37 AM 44.6 °F - 42.8 °F 93% 30.39 in 10.0 mi Calm Calm - N/A   Overcast
5:58 AM 44.6 °F - 42.8 °F 93% 30.39 in 10.0 mi Calm Calm - N/A   Overcast
6:18 AM 44.6 °F - 42.8 °F 93% 30.39 in 10.0 mi Calm Calm - N/A   Overcast
6:37 AM 44.6 °F - 42.8 °F 93% 30.40 in 10.0 mi Calm Calm - N/A   Overcast
6:58 AM 42.8 °F - 42.8 °F 100% 30.40 in 10.0 mi Calm Calm - N/A   Scattered Clouds
7:18 AM 44.6 °F - 42.8 °F 93% 30.41 in 5.0 mi Calm Calm - N/A   Mostly Cloudy
7:38 AM 44.6 °F - 44.6 °F 100% 30.42 in 7.0 mi Calm Calm - N/A   Overcast
7:58 AM 44.6 °F - 44.6 °F 100% 30.42 in 10.0 mi Calm Calm - N/A   Overcast
8:18 AM 44.6 °F - 44.6 °F 100% 30.42 in 10.0 mi Calm Calm - N/A   Overcast
8:38 AM 46.4 °F - 44.6 °F 93% 30.43 in 10.0 mi Calm Calm - N/A   Overcast
8:57 AM 46.4 °F - 44.6 °F 93% 30.44 in 10.0 mi Calm Calm - N/A   Overcast
9:18 AM 46.4 °F - 44.6 °F 93% 30.44 in 10.0 mi Calm Calm - N/A   Overcast
9:39 AM 50.0 °F - 44.6 °F 82% 30.45 in 10.0 mi Calm Calm - N/A   Overcast
9:59 AM 50.0 °F - 44.6 °F 82% 30.46 in 10.0 mi Calm Calm - N/A   Overcast
10:19 AM 50.0 °F - 44.6 °F 82% 30.46 in 10.0 mi Calm Calm - N/A   Overcast
10:39 AM 50.0 °F - 44.6 °F 82% 30.46 in 10.0 mi Calm Calm - N/A   Overcast
10:58 AM 50.0 °F - 44.6 °F 82% 30.47 in 10.0 mi Calm Calm - N/A   Overcast
11:18 AM 53.6 °F - 44.6 °F 72% 30.47 in 10.0 mi Calm Calm - N/A   Mostly Cloudy
11:38 AM 50.0 °F - 44.6 °F 82% 30.46 in 10.0 mi Calm Calm - N/A Thunderstorm Overcast
11:58 AM 51.8 °F - 46.4 °F 82% 30.46 in 10.0 mi Calm Calm - N/A   Overcast
12:19 PM 50.0 °F - 46.4 °F 87% 30.47 in 10.0 mi Calm Calm - N/A   Overcast
12:39 PM 44.6 °F - 41.0 °F 87% 30.47 in 10.0 mi Calm Calm - N/A Rain , Thunderstorm Light Thunderstorms and Rain
12:59 PM 46.4 °F - 44.6 °F 93% 30.46 in 7.0 mi Calm Calm - N/A Rain , Thunderstorm Light Thunderstorms and Rain
1:19 PM 46.4 °F - 44.6 °F 93% 30.47 in 10.0 mi Calm Calm - N/A Thunderstorm Drizzle
1:39 PM 48.2 °F - 44.6 °F 87% 30.47 in 10.0 mi Calm Calm - N/A Thunderstorm Overcast
1:59 PM 46.4 °F 45.2 °F 44.6 °F 93% 30.47 in 7.0 mi North 3.5 mph - N/A Rain , Thunderstorm Light Thunderstorms and Rain
2:19 PM 50.0 °F - 46.4 °F 87% 30.46 in 10.0 mi WNW 4.6 mph - N/A   Overcast
2:38 PM 50.0 °F - 46.4 °F 87% 30.45 in 10.0 mi Calm Calm - N/A Thunderstorm Thunderstorm
2:59 PM 50.0 °F - 46.4 °F 87% 30.45 in 10.0 mi Calm Calm - N/A Thunderstorm Thunderstorm
3:18 PM 55.4 °F - 50.0 °F 82% 30.45 in 10.0 mi Calm Calm - N/A Thunderstorm Mostly Cloudy
3:39 PM 55.4 °F - 48.2 °F 77% 30.45 in 10.0 mi Calm Calm - N/A Thunderstorm Thunderstorm
3:58 PM 55.4 °F - 48.2 °F 77% 30.46 in 10.0 mi Calm Calm - N/A Thunderstorm Thunderstorm
4:19 PM 53.6 °F - 44.6 °F 72% 30.46 in 10.0 mi Calm Calm - N/A   Overcast
4:39 PM 51.8 °F - 46.4 °F 82% 30.46 in 10.0 mi Calm Calm - N/A Rain , Thunderstorm Light Thunderstorms and Rain
4:59 PM 50.0 °F - 46.4 °F 87% 30.46 in 3.0 mi Calm Calm - N/A Rain , Thunderstorm Rain
5:19 PM 50.0 °F - 46.4 °F 87% 30.46 in 10.0 mi Calm Calm - N/A Thunderstorm Mostly Cloudy
5:39 PM 50.0 °F - 46.4 °F 87% 30.46 in 10.0 mi Calm Calm - N/A Rain , Thunderstorm Thunderstorms and Rain
5:59 PM 46.4 °F 44.3 °F 46.4 °F 100% 30.47 in 0.8 mi NW 4.6 mph - N/A Rain , Thunderstorm Light Thunderstorms and Rain
6:19 PM 46.4 °F - 44.6 °F 93% 30.48 in 4.0 mi Calm Calm - N/A Rain , Thunderstorm Thunderstorms and Rain
6:39 PM 46.4 °F - 44.6 °F 93% 30.47 in 5.0 mi Calm Calm - N/A Rain , Thunderstorm Light Thunderstorms and Rain
6:59 PM 46.4 °F - 46.4 °F 100% 30.48 in 10.0 mi Calm Calm - N/A   Overcast
7:19 PM 46.4 °F - 44.6 °F 93% 30.48 in 10.0 mi Calm Calm - N/A Thunderstorm Overcast
7:39 PM 46.4 °F - 44.6 °F 93% 30.48 in 10.0 mi Calm Calm - N/A Thunderstorm Overcast
7:59 PM 46.4 °F - 44.6 °F 93% 30.49 in 10.0 mi Calm Calm - N/A   Overcast
8:19 PM 44.6 °F - 44.6 °F 100% 30.49 in 10.0 mi Calm Calm - N/A   Overcast
8:39 PM 44.6 °F - 44.6 °F 100% 30.50 in 10.0 mi Calm Calm - N/A   Overcast
8:59 PM 44.6 °F - 44.6 °F 100% 30.50 in 10.0 mi Calm Calm - N/A   Light Drizzle
9:19 PM 44.6 °F - 44.6 °F 100% 30.50 in 10.0 mi Calm Calm - N/A   Overcast
9:39 PM 44.6 °F - 44.6 °F 100% 30.50 in 10.0 mi Calm Calm - N/A   Overcast
9:59 PM 44.6 °F - 44.6 °F 100% 30.50 in 10.0 mi Calm Calm - N/A   Mostly Cloudy
10:19 PM 44.6 °F - 42.8 °F 93% 30.50 in 10.0 mi Calm Calm - N/A   Mostly Cloudy
10:39 PM 44.6 °F 43.1 °F 42.8 °F 93% 30.50 in 10.0 mi SE 3.5 mph - N/A   Overcast
10:59 PM 44.6 °F - 42.8 °F 93% 30.50 in 10.0 mi Calm Calm - N/A   Overcast
11:19 PM 44.6 °F 43.1 °F 42.8 °F 93% 30.50 in 10.0 mi SE 3.5 mph - N/A   Overcast
11:39 PM 44.6 °F - 42.8 °F 93% 30.50 in 10.0 mi Calm Calm - N/A   Overcast
11:59 PM 44.6 °F - 42.8 °F 93% 30.50 in 10.0 mi Calm Calm - N/A   Scattered Clouds